TimeEDT,TemperatureF,Dew PointF,Humidity,Sea Level PressureIn,VisibilityMPH,Wind Direction,Wind SpeedMPH,Gust SpeedMPH,PrecipitationIn,Events,Conditions,WindDirDegrees,DateUTC
12:53 AM,60.1,50.0,69,30.03,10.0,NNW,4.6,-,N/A,,Clear,340,2012-09-10 04:53:00
1:53 AM,57.9,50.0,75,30.04,10.0,North,3.5,-,N/A,,Partly Cloudy,10,2012-09-10 05:53:00
2:53 AM,57.9,48.9,72,30.04,10.0,NNW,4.6,-,N/A,,Clear,330,2012-09-10 06:53:00
3:53 AM,57.0,48.9,74,30.04,10.0,NNW,4.6,-,N/A,,Clear,340,2012-09-10 07:53:00
4:53 AM,55.9,48.9,77,30.04,10.0,NNW,3.5,-,N/A,,Clear,330,2012-09-10 08:53:00
5:53 AM,55.0,48.9,80,30.06,10.0,Calm,Calm,-,N/A,,Clear,0,2012-09-10 09:53:00
6:53 AM,53.1,48.9,86,30.09,10.0,Calm,Calm,-,N/A,,Clear,0,2012-09-10 10:53:00
7:53 AM,57.0,50.0,77,30.13,10.0,Calm,Calm,-,N/A,,Clear,0,2012-09-10 11:53:00
8:53 AM,61.0,50.0,67,30.14,10.0,NW,6.9,-,N/A,,Clear,320,2012-09-10 12:53:00
9:53 AM,64.0,51.1,63,30.15,10.0,NNW,6.9,-,N/A,,Clear,340,2012-09-10 13:53:00
10:53 AM,68.0,48.0,49,30.16,10.0,North,11.5,-,N/A,,Partly Cloudy,360,2012-09-10 14:53:00
11:53 AM,68.0,46.0,45,30.16,10.0,North,12.7,-,N/A,,Clear,350,2012-09-10 15:53:00
12:53 PM,69.1,45.0,42,30.14,10.0,NNW,11.5,20.7,N/A,,Partly Cloudy,340,2012-09-10 16:53:00
1:53 PM,69.1,44.1,40,30.14,10.0,NNW,12.7,-,N/A,,Scattered Clouds,340,2012-09-10 17:53:00
3:53 PM,72.0,44.1,37,30.12,10.0,North,17.3,21.9,N/A,,Scattered Clouds,10,2012-09-10 19:53:00
4:53 PM,70.0,44.1,39,30.13,10.0,NNW,12.7,-,N/A,,Mostly Cloudy,340,2012-09-10 20:53:00
5:53 PM,70.0,44.1,39,30.14,10.0,NW,12.7,-,N/A,,Mostly Cloudy,310,2012-09-10 21:53:00
6:53 PM,66.9,45.0,45,30.15,10.0,NW,4.6,-,N/A,,Clear,320,2012-09-10 22:53:00
7:53 PM,64.9,45.0,48,30.16,10.0,North,-9999.0,-,N/A,,Clear,0,2012-09-10 23:53:00
8:53 PM,64.0,45.0,50,30.18,10.0,Calm,Calm,-,N/A,,Clear,0,2012-09-11 00:53:00
9:53 PM,61.0,46.0,58,30.19,10.0,Calm,Calm,-,N/A,,Clear,0,2012-09-11 01:53:00
10:53 PM,61.0,45.0,56,30.20,10.0,NNW,3.5,-,N/A,,Clear,340,2012-09-11 02:53:00
11:53 PM,57.0,46.9,69,30.22,10.0,Calm,Calm,-,N/A,,Clear,0,2012-09-11 03:53:00